"startDT [UTC]","vpos","CH4 [ppm]","stdev(CH4) [ppm]","CO2 [ppm]","stdev(CO2) [ppm]","H2O_reported [%]","stdev(H2O_reported)","CavityPressure [torr]","CavityTemp [C]","OutletValve","CH4_dry [ppm]","CO2_dry [ppm]","DasTemp [C]","EtalonTemp [C]","WarmBoxTemp [C]","MPVPosition","T_ECpre [C]","T_EC1 [C]","T_EC2 [C]","p_inlet [hPa]","p_in [hPa]","p_out [hPa]","T_inlet [C]","RH_inlet [%]","dwpt_inlet [C]","T_vent [C]","RH_vent [%]","dwpt_vent [C]","flow_vent [l min-1]","flow_inlet [l min-1]","dwpt_sample [C]","T_room [C]"
2016-02-14 00:00:00,0.0,1.93909,0.00043,407.478,0.024,0.0174,0.0018,139.997,45.000,31285.56821,1.93942,407.564,30.188,45.072,45.000,0.00,0.08,-272.76,-272.80,-1,511,-939,16.6,0.7,-43.9,16.8,0.7,-42.7,5.73,2.10,-23.4,23.1
2016-02-14 00:01:00,0.0,1.93930,0.00030,407.500,0.026,0.0183,0.0018,139.999,45.000,31286.04990,1.93963,407.588,30.176,45.072,45.000,0.00,0.08,-272.75,-272.80,-2,511,-939,16.6,0.7,-43.7,16.7,0.7,-42.6,5.73,1.95,-23.4,23.1
2016-02-14 00:02:00,0.0,1.93933,0.00029,407.499,0.025,0.0181,0.0018,140.001,45.000,31284.34038,1.93968,407.589,30.128,45.072,45.000,0.00,0.08,-272.75,-272.81,-2,511,-939,16.6,0.7,-43.6,16.8,0.7,-42.6,5.73,1.80,-23.4,23.1
2016-02-14 00:03:00,0.0,1.93948,0.00038,407.497,0.047,0.0183,0.0013,139.998,44.999,31283.44502,1.93984,407.585,30.125,45.072,45.000,0.00,0.08,-272.75,-272.81,-1,511,-939,16.6,0.7,-43.2,16.7,0.8,-42.2,5.73,1.91,-23.5,23.1
2016-02-14 00:04:00,0.0,1.93932,0.00034,407.473,0.036,0.0186,0.0021,140.001,44.999,31283.99057,1.93966,407.565,30.133,45.072,45.000,0.00,0.08,-272.75,-272.80,-1,511,-939,16.6,0.7,-43.2,16.8,0.8,-42.1,5.73,2.08,-23.5,23.1
2016-02-14 00:05:00,0.0,1.93945,0.00042,407.441,0.037,0.0189,0.0018,139.996,44.999,31280.66506,1.93980,407.536,30.134,45.072,45.000,0.00,0.08,-272.75,-272.81,-1,511,-939,16.6,0.7,-42.9,16.7,0.8,-41.9,5.73,2.03,-23.4,23.1
2016-02-14 00:06:00,0.0,1.93970,0.00041,407.431,0.044,0.0192,0.0018,139.999,45.000,31283.25516,1.94007,407.525,30.128,45.072,45.000,0.00,0.08,-272.75,-272.81,-1,511,-939,16.6,0.7,-42.9,16.7,0.8,-41.8,5.73,1.83,-23.5,23.1
2016-02-14 00:07:00,0.0,1.93956,0.00028,407.444,0.024,0.0182,0.0023,139.999,45.001,31285.29685,1.93990,407.533,30.128,45.072,45.000,0.00,0.08,-272.75,-272.80,-2,511,-939,16.6,0.7,-42.9,16.7,0.8,-41.9,5.73,1.83,-23.5,23.1
2016-02-14 00:08:00,0.0,1.93882,0.00067,407.345,0.049,0.0190,0.0017,139.999,45.002,31287.36011,1.93925,407.441,30.149,45.072,45.000,0.00,0.08,-272.75,-272.80,-2,511,-939,16.6,0.7,-43.0,16.7,0.8,-41.9,5.73,2.03,-23.5,23.1
2016-02-14 00:09:00,0.0,1.93825,0.00059,407.326,0.026,0.0192,0.0022,140.000,45.002,31286.98525,1.93861,407.420,30.136,45.072,45.000,0.00,0.08,-272.76,-272.81,-1,511,-939,16.5,0.7,-43.0,16.7,0.8,-41.9,5.73,2.08,-23.5,23.1
2016-02-14 00:10:00,0.0,1.93672,0.00084,407.369,0.035,0.0190,0.0015,139.999,45.001,31285.78679,1.93716,407.459,30.128,45.072,45.000,0.00,0.08,-272.75,-272.81,-1,511,-939,16.5,0.7,-42.9,16.7,0.8,-41.9,5.73,1.90,-23.5,23.1
2016-02-14 00:11:00,0.0,1.93499,0.00067,407.475,0.023,0.0193,0.0021,140.000,45.000,31285.20617,1.93540,407.570,30.128,45.071,45.000,0.00,0.08,-272.75,-272.80,-1,511,-939,16.5,0.7,-43.0,16.7,0.8,-41.6,5.73,1.79,-23.5,23.1
2016-02-14 00:12:00,0.0,1.93373,0.00039,407.406,0.048,0.0187,0.0014,139.999,45.000,31285.10451,1.93411,407.500,30.127,45.071,45.000,0.00,0.08,-272.76,-272.80,-1,511,-939,16.5,0.7,-43.0,16.7,0.8,-41.6,5.73,1.97,-23.5,23.1
2016-02-14 00:13:00,0.0,1.93432,0.00066,407.364,0.029,0.0193,0.0017,139.999,44.999,31283.15267,1.93467,407.457,30.126,45.072,45.000,0.00,0.08,-272.76,-272.81,-2,511,-939,16.5,0.7,-42.9,16.7,0.8,-41.9,5.73,2.10,-23.5,23.1
2016-02-14 00:14:00,0.0,1.93456,0.00072,407.387,0.031,0.0193,0.0021,140.000,44.999,31281.71925,1.93488,407.482,30.120,45.072,45.000,0.00,0.08,-272.75,-272.80,-1,511,-939,16.5,0.7,-43.0,16.7,0.8,-41.9,5.73,1.97,-23.5,23.1
2016-02-14 00:15:00,0.0,1.93694,0.00066,407.444,0.031,0.0181,0.0016,139.999,44.999,31278.79678,1.93725,407.532,30.122,45.072,45.000,0.00,0.08,-272.74,-272.80,-1,511,-939,16.5,0.7,-43.3,16.7,0.8,-41.9,5.73,1.80,-23.5,23.1
2016-02-14 00:16:00,0.0,1.93793,0.00066,407.436,0.032,0.0185,0.0018,140.000,44.999,31278.43994,1.93826,407.528,30.125,45.071,45.000,0.00,0.08,-272.75,-272.81,-0,511,-939,16.5,0.7,-43.4,16.7,0.8,-42.1,5.73,1.89,-23.5,23.1
2016-02-14 00:17:00,0.0,1.93752,0.00116,407.366,0.037,0.0181,0.0014,139.999,44.999,31279.61941,1.93781,407.456,30.126,45.072,45.000,0.00,0.08,-272.75,-272.80,-1,511,-939,16.5,0.7,-43.7,16.7,0.8,-42.2,5.73,2.08,-23.5,23.1
2016-02-14 00:18:00,0.0,1.93782,0.00223,407.344,0.032,0.0182,0.0016,139.998,45.000,31278.30113,1.93828,407.433,30.128,45.072,45.000,0.00,0.08,-272.74,-272.80,-1,511,-939,16.5,0.7,-43.6,16.7,0.8,-42.3,5.73,2.04,-23.5,23.1
2016-02-14 00:19:00,0.0,1.93325,0.00093,407.345,0.031,0.0190,0.0012,140.000,44.999,31277.35002,1.93371,407.438,30.124,45.072,45.000,0.00,0.08,-272.75,-272.81,-2,511,-939,16.5,0.7,-43.2,16.7,0.8,-42.1,5.73,1.84,-23.5,23.1
2016-02-14 00:20:00,0.0,1.93141,0.00057,407.337,0.038,0.0196,0.0018,139.998,44.997,31272.69882,1.93182,407.432,30.123,45.071,45.000,0.00,0.08,-272.76,-272.81,-1,511,-939,16.5,0.7,-43.0,16.7,0.8,-41.9,5.73,1.83,-23.5,23.1
2016-02-14 00:21:00,0.0,1.93204,0.00103,407.319,0.033,0.0179,0.0019,139.995,45.000,31272.82457,1.93231,407.407,30.119,45.071,44.999,0.00,0.08,-272.75,-272.80,-1,511,-939,16.5,0.7,-43.3,16.7,0.8,-42.0,5.73,2.03,-23.5,23.1
2016-02-14 00:22:00,0.0,1.93230,0.00067,407.339,0.038,0.0182,0.0020,140.003,45.013,31291.85075,1.93266,407.429,30.126,45.071,44.999,0.00,0.08,-272.75,-272.80,-1,511,-939,16.5,0.7,-43.6,16.7,0.8,-42.2,5.73,2.09,-23.5,23.1
2016-02-14 00:23:00,0.0,1.93483,0.00085,407.278,0.031,0.0168,0.0021,140.003,45.036,31330.74905,1.93501,407.361,30.127,45.070,44.999,0.00,0.08,-272.75,-272.81,-1,511,-939,16.5,0.7,-43.6,16.7,0.7,-42.5,5.73,1.91,-23.5,23.1
2016-02-14 00:24:00,0.0,1.93701,0.00077,407.238,0.047,0.0182,0.0015,140.003,45.063,31376.97612,1.93731,407.329,30.132,45.071,45.000,0.00,0.08,-272.75,-272.80,-2,511,-939,16.5,0.6,-43.9,16.7,0.7,-42.6,5.73,1.80,-23.5,23.1
2016-02-14 00:25:00,0.0,1.93717,0.00132,407.221,0.026,0.0171,0.0016,140.002,45.068,31409.43040,1.93761,407.304,30.123,45.072,45.001,0.00,0.08,-272.75,-272.80,-2,511,-939,16.5,0.6,-44.1,16.7,0.7,-42.7,5.73,1.96,-23.5,23.1
2016-02-14 00:26:00,0.0,1.93531,0.00061,407.219,0.037,0.0172,0.0016,139.996,45.048,31425.41572,1.93559,407.303,30.114,45.073,45.001,0.00,0.08,-272.76,-272.81,-1,511,-939,16.5,0.6,-44.0,16.7,0.7,-43.0,5.73,2.10,-23.5,23.1
2016-02-14 00:27:00,0.0,1.93836,0.00118,407.282,0.034,0.0169,0.0016,140.001,45.023,31429.90975,1.93854,407.364,30.123,45.073,45.001,0.00,0.08,-272.75,-272.81,-1,511,-939,16.5,0.6,-44.1,16.7,0.7,-42.9,5.73,1.96,-23.5,23.1
2016-02-14 00:28:00,0.0,1.93746,0.00138,407.332,0.031,0.0163,0.0019,139.999,45.001,31426.51946,1.93794,407.410,30.119,45.073,45.001,0.00,0.08,-272.74,-272.80,-1,511,-939,16.5,0.6,-44.1,16.7,0.7,-43.0,5.73,1.80,-23.5,23.1
2016-02-14 00:29:00,0.0,1.93712,0.00110,407.337,0.042,0.0171,0.0016,139.999,44.985,31415.72056,1.93734,407.422,30.121,45.073,45.001,0.00,0.08,-272.75,-272.80,-1,511,-939,16.5,0.6,-44.1,16.7,0.7,-42.9,5.73,1.90,-23.5,23.1
2016-02-14 00:30:00,0.0,1.93983,0.00095,407.347,0.031,0.0174,0.0014,139.996,44.974,31398.24833,1.94013,407.431,30.125,45.073,45.001,0.00,0.08,-272.76,-272.80,-2,511,-939,16.5,0.6,-44.1,16.7,0.7,-42.9,5.73,2.09,-23.5,23.1
2016-02-14 00:31:00,0.0,1.94033,0.00075,407.330,0.023,0.0168,0.0023,140.000,44.968,31382.23329,1.94059,407.412,30.126,45.073,45.001,0.00,0.08,-272.74,-272.80,-1,511,-939,16.5,0.6,-44.3,16.7,0.7,-43.0,5.73,2.03,-23.5,23.1
2016-02-14 00:32:00,0.0,1.94059,0.00057,407.370,0.037,0.0180,0.0018,139.999,44.965,31364.30324,1.94097,407.457,30.137,45.072,45.000,0.00,0.08,-272.75,-272.81,-1,511,-939,16.5,0.6,-44.2,16.7,0.7,-42.9,5.73,1.83,-23.5,23.1
2016-02-14 00:33:00,0.0,1.94077,0.00043,407.357,0.042,0.0171,0.0016,139.996,44.965,31343.99619,1.94105,407.441,30.134,45.071,45.000,0.00,0.08,-272.75,-272.81,-0,511,-939,16.5,0.6,-44.0,16.7,0.7,-42.8,5.73,1.84,-23.5,23.1
2016-02-14 00:34:00,0.0,1.94064,0.00053,407.350,0.035,0.0190,0.0021,139.999,44.968,31325.47628,1.94105,407.444,30.129,45.071,44.999,0.00,0.08,-272.75,-272.80,-1,511,-939,16.5,0.7,-43.8,16.7,0.7,-42.6,5.73,2.05,-23.5,23.1
2016-02-14 00:35:00,0.0,1.93918,0.00059,407.361,0.036,0.0179,0.0016,139.998,44.974,31311.73023,1.93955,407.448,30.130,45.071,44.999,0.00,0.27,-271.40,-272.76,-1,511,-939,16.5,0.7,-43.7,16.7,0.7,-42.7,5.43,2.11,-28.0,23.1
2016-02-14 00:36:00,0.0,1.93906,0.00047,407.352,0.029,0.0177,0.0018,139.999,44.980,31302.36655,1.93941,407.439,30.125,45.070,44.999,0.00,0.08,-272.75,-272.81,-2,511,-939,16.5,0.7,-43.9,16.7,0.7,-42.6,5.73,1.87,-23.5,23.0
2016-02-14 00:37:00,0.0,1.93927,0.00027,407.334,0.025,0.0170,0.0020,139.997,44.987,31297.33490,1.93957,407.417,30.127,45.071,44.999,0.00,0.08,-272.75,-272.81,-1,511,-939,16.5,0.6,-44.1,16.7,0.7,-42.7,5.73,1.81,-22.4,23.1
2016-02-14 00:38:00,0.0,1.93994,0.00044,407.328,0.033,0.0174,0.0018,139.999,44.992,31292.09462,1.94023,407.414,30.131,45.071,45.000,0.00,0.08,-272.75,-272.80,-1,511,-939,16.5,0.7,-43.8,16.7,0.7,-42.5,5.73,1.99,-22.2,23.0
2016-02-14 00:39:00,0.0,1.93969,0.00040,407.311,0.044,0.0181,0.0017,140.001,44.996,31291.89913,1.94005,407.399,30.121,45.071,45.000,0.00,0.08,-272.75,-272.80,-0,511,-939,16.5,0.7,-43.7,16.7,0.7,-42.6,5.73,2.10,-22.3,23.0
2016-02-14 00:40:00,0.0,1.93991,0.00041,407.267,0.034,0.0183,0.0023,139.998,44.999,31289.45787,1.94027,407.359,30.100,45.071,45.000,0.00,0.08,-272.75,-272.81,-1,511,-939,16.5,0.7,-43.7,16.7,0.8,-42.5,5.73,1.93,-22.4,23.0
2016-02-14 00:41:00,0.0,1.93816,0.00056,407.086,0.033,0.0180,0.0024,140.001,45.000,31290.92684,1.93856,407.177,30.083,45.071,45.000,0.00,0.08,-272.75,-272.80,-1,511,-939,16.5,0.7,-43.8,16.7,0.8,-42.3,5.73,1.79,-22.5,23.0
2016-02-14 00:42:00,0.0,1.93830,0.00052,407.078,0.038,0.0180,0.0016,139.999,45.001,31290.47457,1.93862,407.166,30.065,45.072,45.000,0.00,0.08,-272.75,-272.79,-2,511,-939,16.5,0.7,-43.7,16.7,0.7,-42.6,5.73,1.94,-22.6,23.0
2016-02-14 00:43:00,0.0,1.93863,0.00067,407.111,0.048,0.0174,0.0019,139.999,45.000,31287.85934,1.93892,407.196,30.062,45.072,45.000,0.00,0.08,-272.76,-272.81,-1,511,-939,16.5,0.7,-43.7,16.7,0.7,-42.6,5.73,2.10,-22.6,23.0
2016-02-14 00:44:00,0.0,1.93931,0.00032,407.152,0.025,0.0176,0.0016,140.001,45.001,31286.54269,1.93964,407.238,30.061,45.072,45.000,0.00,0.08,-272.75,-272.81,-0,511,-939,16.4,0.7,-43.9,16.7,0.7,-42.7,5.73,1.98,-22.7,23.0
2016-02-14 00:45:00,0.0,1.93920,0.00045,407.145,0.030,0.0179,0.0020,139.997,45.000,31285.63853,1.93952,407.231,30.044,45.072,45.001,0.00,0.08,-272.74,-272.80,-1,511,-939,16.5,0.7,-43.7,16.7,0.7,-42.6,5.73,1.80,-22.8,23.0
2016-02-14 00:46:00,0.0,1.93921,0.00032,407.136,0.034,0.0183,0.0020,140.001,44.999,31285.72030,1.93957,407.225,30.043,45.072,45.000,0.00,0.08,-272.75,-272.80,-1,511,-939,16.5,0.7,-43.4,16.7,0.8,-42.4,5.73,1.89,-22.8,23.0
2016-02-14 00:47:00,0.0,1.93915,0.00031,407.158,0.031,0.0194,0.0021,140.001,44.999,31283.93078,1.93956,407.255,30.016,45.072,45.000,0.00,0.08,-272.75,-272.81,-2,511,-939,16.4,0.7,-43.1,16.7,0.8,-42.1,5.73,2.09,-22.8,23.0
2016-02-14 00:48:00,0.0,1.93909,0.00035,407.146,0.030,0.0183,0.0013,139.998,44.999,31281.86751,1.93942,407.236,30.003,45.072,45.000,0.00,0.08,-272.75,-272.80,-1,511,-939,16.5,0.7,-43.0,16.7,0.8,-42.0,5.73,2.02,-22.9,23.0
2016-02-14 00:49:00,0.0,1.93824,0.00088,407.071,0.053,0.0195,0.0019,140.001,44.999,31278.90417,1.93869,407.168,30.002,45.072,45.000,0.00,0.08,-272.75,-272.80,-1,511,-939,16.5,0.7,-43.0,16.7,0.8,-41.9,5.73,1.81,-22.9,23.0
2016-02-14 00:50:00,0.0,1.93507,0.00075,406.949,0.022,0.0195,0.0015,139.999,44.999,31276.77328,1.93553,407.044,30.002,45.072,45.000,0.00,0.08,-272.76,-272.80,-0,511,-939,16.5,0.7,-43.0,16.7,0.8,-41.9,5.73,1.86,-23.0,23.0
2016-02-14 00:51:00,0.0,1.93467,0.00087,406.936,0.030,0.0182,0.0017,140.000,44.999,31275.36191,1.93500,407.027,29.985,45.072,45.000,0.00,0.08,-272.76,-272.80,-1,511,-939,16.5,0.7,-43.0,16.7,0.8,-42.0,5.73,2.06,-23.0,23.0
2016-02-14 00:52:00,0.0,1.93553,0.00076,406.889,0.028,0.0190,0.0020,140.000,45.000,31276.19754,1.93582,406.982,29.946,45.072,45.000,0.00,0.08,-272.75,-272.80,-1,511,-939,16.5,0.7,-43.3,16.7,0.8,-41.9,5.73,2.06,-23.0,23.0
2016-02-14 00:53:00,0.0,1.93590,0.00047,406.877,0.034,0.0196,0.0026,140.000,45.000,31277.67759,1.93632,406.975,29.972,45.072,45.000,0.00,0.08,-272.75,-272.81,-2,511,-939,16.4,0.7,-43.2,16.7,0.8,-41.9,5.73,1.84,-23.1,23.0
2016-02-14 00:54:00,0.0,1.93586,0.00051,406.863,0.038,0.0195,0.0018,139.997,45.000,31276.13170,1.93623,406.958,29.993,45.072,45.000,0.00,0.08,-272.75,-272.80,-1,511,-939,16.5,0.7,-42.9,16.7,0.8,-42.0,5.73,1.82,-23.1,23.0
2016-02-14 00:55:00,0.0,1.93577,0.00032,406.837,0.024,0.0190,0.0014,140.000,45.000,31275.94906,1.93609,406.928,29.975,45.072,45.000,0.00,0.08,-272.75,-272.79,-1,511,-939,16.4,0.7,-43.0,16.6,0.8,-41.7,5.73,2.03,-23.1,23.0
2016-02-14 00:56:00,0.0,1.93577,0.00062,406.861,0.041,0.0198,0.0020,139.998,45.000,31274.40469,1.93619,406.958,29.954,45.071,45.000,0.00,0.08,-272.75,-272.80,-1,511,-939,16.5,0.7,-42.9,16.7,0.8,-41.6,5.73,2.08,-23.1,23.0
2016-02-14 00:57:00,0.0,1.93442,0.00069,406.909,0.094,0.0193,0.0015,139.996,45.000,31273.99460,1.93483,406.999,29.963,45.072,45.000,0.00,0.08,-272.76,-272.81,-1,511,-939,16.5,0.7,-43.0,16.7,0.8,-41.6,5.73,1.88,-23.2,23.0
2016-02-14 00:58:00,0.0,1.93395,0.00058,406.930,0.056,0.0197,0.0019,139.997,45.000,31275.68427,1.93434,407.029,29.982,45.072,45.000,0.00,0.08,-272.75,-272.81,-2,511,-939,16.4,0.7,-42.7,16.7,0.8,-41.6,5.73,1.80,-23.2,23.0
2016-02-14 00:59:00,0.0,1.93356,0.00059,406.940,0.055,0.0198,0.0024,139.996,45.000,31274.08143,1.93395,407.036,29.999,45.072,45.000,0.00,0.08,-272.75,-272.80,-1,511,-939,16.5,0.8,-42.6,16.7,0.8,-41.6,5.73,1.97,-23.2,23.0
2016-02-14 01:00:00,0.0,1.93379,0.00058,406.930,0.055,0.0196,0.0015,139.999,45.000,31272.86333,1.93418,407.026,29.976,45.071,45.000,0.00,0.08,-272.76,-272.81,-1,511,-939,16.4,0.8,-42.4,16.7,0.9,-41.3,5.73,2.09,-23.2,23.0
2016-02-14 01:01:00,0.0,1.93343,0.00072,406.933,0.058,0.0201,0.0017,139.999,45.000,31275.06778,1.93385,407.031,29.970,45.072,45.000,0.00,0.08,-272.75,-272.81,-0,511,-939,16.4,0.8,-42.3,16.6,0.9,-41.2,5.73,1.93,-23.2,23.0
2016-02-14 01:02:00,0.0,1.93326,0.00058,406.943,0.057,0.0206,0.0018,140.000,45.000,31273.05501,1.93363,407.045,29.998,45.072,45.000,0.00,0.08,-272.75,-272.80,-1,511,-939,16.4,0.8,-42.0,16.7,0.9,-41.0,5.73,1.77,-23.2,23.0
2016-02-14 01:03:00,0.0,1.93372,0.00065,406.947,0.057,0.0207,0.0019,140.001,45.000,31271.37924,1.93409,407.047,29.997,45.071,45.000,0.00,0.08,-272.76,-272.81,-1,511,-939,16.4,0.8,-41.7,16.6,0.9,-40.8,5.73,1.93,-23.3,23.0
2016-02-14 01:04:00,0.0,1.93281,0.00043,406.974,0.063,0.0210,0.0021,139.998,45.000,31272.12164,1.93323,407.079,29.984,45.071,45.000,0.00,0.08,-272.76,-272.81,-2,511,-939,16.4,0.8,-41.6,16.7,0.9,-40.7,5.73,2.09,-23.3,23.0
2016-02-14 01:05:00,0.0,1.93354,0.00033,406.953,0.061,0.0207,0.0018,139.999,45.000,31270.71428,1.93390,407.052,29.996,45.071,45.000,0.00,0.08,-272.74,-272.80,-1,511,-939,16.4,0.8,-41.7,16.6,0.9,-40.7,5.73,1.96,-23.3,23.0
2016-02-14 01:06:00,0.0,1.93296,0.00045,406.980,0.056,0.0209,0.0015,140.001,45.000,31273.71735,1.93341,407.082,29.992,45.071,45.000,0.00,0.08,-272.75,-272.80,-1,511,-939,16.5,0.8,-41.6,16.7,0.9,-40.7,5.73,1.78,-23.3,23.0
2016-02-14 01:07:00,0.0,1.93281,0.00036,407.007,0.055,0.0207,0.0017,139.998,45.000,31273.83078,1.93316,407.109,29.985,45.071,45.000,0.00,0.08,-272.76,-272.80,-1,511,-939,16.5,0.8,-41.6,16.7,0.9,-40.7,5.73,1.89,-23.3,23.0
2016-02-14 01:08:00,0.0,1.93348,0.00040,406.939,0.047,0.0205,0.0018,139.999,45.000,31272.36061,1.93388,407.040,29.990,45.071,45.000,0.00,0.08,-272.76,-272.79,-1,511,-939,16.4,0.8,-41.7,16.7,0.9,-40.7,5.73,2.08,-23.3,23.0
2016-02-14 01:09:00,0.0,1.93399,0.00041,406.945,0.043,0.0203,0.0017,140.000,45.000,31271.93200,1.93435,407.044,29.991,45.072,45.000,0.00,0.08,-272.75,-272.80,-2,511,-939,16.4,0.8,-41.8,16.6,0.9,-40.7,5.73,1.99,-23.3,23.0
2016-02-14 01:10:00,0.0,1.93408,0.00047,407.025,0.047,0.0210,0.0013,140.000,45.000,31273.40194,1.93444,407.128,29.991,45.071,45.000,0.00,0.08,-272.75,-272.81,-2,511,-939,16.4,0.8,-42.0,16.7,0.9,-40.9,5.73,1.79,-23.3,23.0
2016-02-14 01:11:00,0.0,1.93372,0.00049,407.007,0.051,0.0200,0.0014,139.998,45.000,31273.62466,1.93415,407.102,29.986,45.072,45.000,0.00,0.08,-272.75,-272.81,-1,511,-939,16.4,0.8,-42.1,16.7,0.9,-41.1,5.73,1.87,-23.3,23.0
2016-02-14 01:12:00,0.0,1.93180,0.00074,407.125,0.053,0.0214,0.0012,140.001,45.000,31275.59931,1.93227,407.228,29.999,45.071,45.000,0.00,0.08,-272.75,-272.80,-1,511,-939,16.4,0.8,-41.9,16.7,0.9,-41.0,5.73,2.07,-23.4,23.0
2016-02-14 01:13:00,0.0,1.93074,0.00081,407.064,0.080,0.0207,0.0018,139.998,45.000,31273.77876,1.93120,407.170,30.000,45.071,45.000,0.00,0.08,-272.75,-272.80,-1,511,-939,16.4,0.8,-41.6,16.7,0.9,-40.6,5.73,2.02,-23.4,23.0
2016-02-14 01:14:00,0.0,1.93197,0.00100,407.127,0.124,0.0214,0.0018,140.001,45.000,31272.52860,1.93228,407.229,30.000,45.072,45.000,0.00,0.08,-272.75,-272.81,-2,511,-939,16.5,0.9,-41.3,16.7,0.9,-40.5,5.73,1.81,-23.4,23.0
2016-02-14 01:15:00,0.0,1.93181,0.00053,407.003,0.059,0.0216,0.0014,140.000,45.000,31272.78413,1.93226,407.112,29.999,45.071,45.000,0.00,0.08,-272.75,-272.80,-2,511,-939,16.4,0.9,-41.4,16.7,1.0,-40.2,5.73,1.84,-23.4,23.0
2016-02-14 01:16:00,0.0,1.93086,0.00068,406.855,0.077,0.0225,0.0019,139.999,45.000,31273.07892,1.93124,406.963,29.987,45.072,45.000,0.00,0.08,-272.75,-272.80,-1,511,-939,16.5,0.9,-41.4,16.7,1.0,-40.2,5.73,2.06,-23.4,23.0
2016-02-14 01:17:00,0.0,1.93193,0.00086,407.176,0.198,0.0210,0.0017,140.000,45.000,31274.28868,1.93242,407.284,29.948,45.072,45.000,0.00,0.08,-272.76,-272.81,-1,511,-939,16.5,0.9,-41.3,16.7,1.0,-40.1,5.73,2.03,-23.4,23.0
2016-02-14 01:18:00,0.0,1.93058,0.00052,406.698,0.027,0.0211,0.0017,139.999,45.000,31272.76997,1.93095,406.801,29.942,45.072,45.000,0.00,0.08,-272.75,-272.81,-1,511,-939,16.5,0.9,-41.4,16.7,1.0,-40.3,5.73,1.81,-23.4,23.0
2016-02-14 01:19:00,0.0,1.93313,0.00065,407.042,0.160,0.0220,0.0021,139.996,45.000,31272.82785,1.93344,407.145,29.943,45.072,45.000,0.00,0.08,-272.75,-272.79,-1,511,-939,16.5,0.9,-41.3,16.6,0.9,-40.3,5.73,1.84,-23.4,23.0
2016-02-14 01:20:00,0.0,1.93441,0.00067,406.985,0.134,0.0221,0.0019,140.000,45.000,31271.80504,1.93480,407.096,29.939,45.072,45.000,0.00,0.08,-272.76,-272.80,-2,511,-939,16.5,0.9,-41.3,16.7,1.0,-40.2,5.73,2.05,-23.4,23.0
2016-02-14 01:21:00,0.0,1.93568,0.00053,406.783,0.035,0.0210,0.0016,139.998,45.000,31269.03018,1.93604,406.886,29.939,45.072,45.000,0.00,0.08,-272.75,-272.81,-1,511,-939,16.5,0.8,-41.6,16.7,0.9,-40.5,5.73,2.03,-23.4,23.0
2016-02-14 01:22:00,0.0,1.93699,0.00031,406.832,0.032,0.0204,0.0019,139.998,45.000,31270.04865,1.93735,406.930,29.939,45.072,45.000,0.00,0.08,-272.75,-272.80,-1,511,-939,16.5,0.8,-41.8,16.7,0.9,-40.7,5.73,1.81,-23.4,23.0
2016-02-14 01:23:00,0.0,1.93702,0.00040,406.849,0.039,0.0210,0.0017,140.001,45.000,31272.70135,1.93746,406.951,29.938,45.072,45.000,0.00,0.08,-272.75,-272.80,-1,511,-939,16.5,0.8,-42.0,16.7,0.9,-40.7,5.73,1.83,-23.4,23.0
2016-02-14 01:24:00,0.0,1.93694,0.00056,406.863,0.053,0.0210,0.0016,140.000,45.000,31275.11549,1.93728,406.965,29.937,45.072,45.000,0.00,0.08,-272.76,-272.81,-1,511,-939,16.5,0.8,-41.9,16.7,0.9,-40.7,5.73,2.06,-23.4,23.1
2016-02-14 01:25:00,0.0,1.93718,0.00040,406.926,0.032,0.0203,0.0016,139.998,45.000,31273.11082,1.93759,407.026,29.937,45.072,45.000,0.00,0.08,-272.74,-272.81,-2,511,-939,16.5,0.8,-41.6,16.7,0.9,-40.8,5.73,2.03,-23.4,23.1
2016-02-14 01:26:00,0.0,1.93697,0.00035,406.922,0.033,0.0216,0.0021,140.001,45.000,31273.57657,1.93737,407.028,29.938,45.072,45.000,0.00,0.08,-272.74,-272.80,-2,511,-939,16.5,0.8,-41.6,16.7,0.9,-40.7,5.73,1.82,-23.4,23.1
2016-02-14 01:27:00,0.0,1.93746,0.00043,406.939,0.026,0.0213,0.0015,139.999,45.000,31273.02174,1.93785,407.041,29.938,45.072,45.000,0.00,0.08,-272.76,-272.81,-1,511,-939,16.6,0.8,-41.5,16.7,0.9,-40.6,5.73,1.83,-23.4,23.1
2016-02-14 01:28:00,0.0,1.93758,0.00035,406.930,0.053,0.0222,0.0017,139.996,45.000,31272.44188,1.93802,407.040,29.938,45.072,45.000,0.00,0.08,-272.76,-272.80,-1,511,-939,16.6,0.9,-41.3,16.7,0.9,-40.4,5.73,2.06,-23.4,23.1
2016-02-14 01:29:00,0.0,1.93735,0.00037,406.954,0.035,0.0226,0.0012,139.999,45.000,31272.92858,1.93779,407.064,29.939,45.072,45.000,0.00,0.08,-272.75,-272.81,-1,511,-939,16.6,0.9,-41.0,16.7,1.0,-40.1,5.73,2.04,-23.4,23.1
2016-02-14 01:30:00,0.0,1.93672,0.00025,406.978,0.033,0.0223,0.0023,140.000,45.000,31273.99397,1.93715,407.088,29.938,45.072,45.000,0.00,0.08,-272.75,-272.81,-2,511,-939,16.6,0.9,-40.7,16.7,1.0,-39.9,5.73,1.80,-23.4,23.1
2016-02-14 01:31:00,0.0,1.93668,0.00042,406.943,0.043,0.0227,0.0017,140.001,45.000,31274.26880,1.93710,407.054,29.941,45.072,45.000,0.00,0.08,-272.75,-272.81,-2,511,-939,16.6,0.9,-41.0,16.7,1.0,-39.9,5.73,1.84,-23.4,23.1
2016-02-14 01:32:00,0.0,1.93715,0.00030,406.950,0.045,0.0233,0.0018,139.998,45.000,31272.84894,1.93757,407.062,29.939,45.072,45.000,0.00,0.08,-272.75,-272.79,-1,511,-939,16.6,0.9,-40.8,16.7,1.0,-39.8,5.73,2.07,-23.4,23.1
2016-02-14 01:33:00,0.0,1.93683,0.00046,406.954,0.031,0.0224,0.0013,140.000,45.000,31276.13636,1.93730,407.064,29.941,45.072,45.000,0.00,0.08,-272.75,-272.80,-1,511,-939,16.6,0.9,-40.7,16.7,1.0,-39.8,5.73,2.02,-23.4,23.1
2016-02-14 01:34:00,0.0,1.93689,0.00046,406.953,0.038,0.0231,0.0017,139.999,45.000,31274.70828,1.93733,407.068,29.947,45.072,45.000,0.00,0.08,-272.76,-272.81,-1,511,-939,16.6,0.9,-40.5,16.7,1.0,-39.6,5.73,1.80,-23.4,23.1
2016-02-14 01:35:00,0.0,1.93677,0.00031,406.945,0.029,0.0232,0.0016,139.998,45.000,31272.65378,1.93724,407.058,29.943,45.072,45.000,0.00,0.08,-272.75,-272.80,-2,511,-939,16.6,0.9,-40.4,16.7,1.0,-39.6,5.73,1.85,-23.4,23.1
2016-02-14 01:36:00,0.0,1.93611,0.00060,406.957,0.037,0.0231,0.0016,139.996,45.000,31272.90376,1.93652,407.069,29.980,45.072,45.000,0.00,0.08,-272.75,-272.80,-2,511,-939,16.6,0.9,-40.5,16.7,1.0,-39.6,5.73,2.08,-23.5,23.1
2016-02-14 01:37:00,0.0,1.93588,0.00027,406.947,0.050,0.0235,0.0023,139.998,45.000,31271.96285,1.93637,407.063,29.997,45.071,45.000,0.00,0.08,-272.75,-272.81,-1,511,-939,16.6,0.9,-40.4,16.7,1.0,-39.6,5.73,2.00,-23.4,23.1
2016-02-14 01:38:00,0.0,1.93578,0.00037,406.904,0.036,0.0229,0.0015,139.998,45.000,31272.99942,1.93622,407.015,30.000,45.071,45.000,0.00,0.08,-272.75,-272.81,-1,511,-939,16.6,0.9,-40.4,16.7,1.0,-39.6,5.73,1.78,-23.4,23.1
2016-02-14 01:39:00,0.0,1.93574,0.00049,406.911,0.020,0.0231,0.0016,140.000,45.000,31275.46245,1.93616,407.024,29.992,45.071,45.000,0.00,0.08,-272.75,-272.80,-1,511,-939,16.6,0.9,-40.5,16.7,1.0,-39.6,5.73,1.89,-23.4,23.1
2016-02-14 01:40:00,0.0,1.93558,0.00046,406.863,0.026,0.0230,0.0019,140.001,45.000,31276.52298,1.93604,406.977,29.988,45.071,45.000,0.00,0.08,-272.76,-272.80,-2,511,-939,16.6,0.9,-40.4,16.7,1.0,-39.6,5.73,2.09,-23.5,23.1
2016-02-14 01:41:00,0.0,1.93513,0.00034,406.868,0.034,0.0233,0.0015,140.001,45.000,31276.81379,1.93558,406.982,29.995,45.072,45.000,0.00,0.08,-272.76,-272.81,-2,511,-939,16.6,0.9,-40.5,16.7,1.0,-39.7,5.73,1.97,-23.5,23.1
2016-02-14 01:42:00,0.0,1.93404,0.00052,406.839,0.035,0.0238,0.0017,140.000,45.000,31276.32206,1.93455,406.955,29.977,45.072,45.000,0.00,0.08,-272.75,-272.81,-1,511,-939,16.6,1.0,-40.2,16.7,1.0,-39.4,5.73,1.77,-23.5,23.1
2016-02-14 01:43:00,0.0,1.93375,0.00052,406.802,0.044,0.0237,0.0019,139.999,45.000,31275.32913,1.93418,406.918,29.997,45.072,45.000,0.00,0.08,-272.76,-272.80,-1,511,-939,16.6,1.0,-40.1,16.7,1.0,-39.3,5.73,1.91,-23.5,23.1
2016-02-14 01:44:00,0.0,1.93375,0.00033,406.824,0.025,0.0246,0.0019,139.999,45.000,31275.63208,1.93421,406.944,29.998,45.072,45.000,0.00,0.08,-272.76,-272.81,-1,511,-939,16.6,1.0,-40.2,16.7,1.1,-39.3,5.73,2.10,-23.5,23.1
2016-02-14 01:45:00,0.0,1.93359,0.00026,406.813,0.032,0.0239,0.0017,139.997,45.000,31275.56693,1.93406,406.930,29.991,45.072,45.000,0.00,0.08,-272.75,-272.81,-2,511,-939,16.6,1.0,-40.0,16.7,1.1,-39.1,5.73,1.94,-23.5,23.1